Regional Weather Roundup
Issued by NWS Goodland, KS

Home | Current Version | Previous Version | Text Only | Print | Product List | Glossary Off
Versions: 1 2 3 4 5 6 7 8 9 10 11 12 13 14 15 16 17 18 19 20 21 22 23 24 25 26 27 28 29 30 31 32 33 34 35 36 37 38 39 40 41 42 43 44 45 46 47 48 49 50

000
ASUS43 KGLD 250959
RWRGLD

GOODLAND FORECAST AREA HOURLY WEATHER ROUNDUP
NATIONAL WEATHER SERVICE GOODLAND KS
400 AM MDT TUE APR 25 2017

...OFFICIAL OBSERVATIONS...

CITY           SKY/WX    TMP DP  RH WIND       PRES   REMARKS
GOODLAND KS      N/A     47  41  80 MISG      29.46R
HILL CITY KS   CLOUDY    55  44  66 NE16G26   29.45R
IMPERIAL NEB   CLOUDY    48  44  86 NW14G25   29.55R
MCCOOK NEB     CLOUDY    47  45  93 E14       29.44F
AKRON CO       LGT RAIN  42  40  92 N10       29.58S
BURLINGTON CO  NOT AVBL
LIMON CO       CLOUDY    41  39  93 N21G29    29.59R
$$

...UNOFFICIAL OBSERVATIONS...

CITY           SKY/WX    TMP DP  RH WIND       PRES   REMARKS
LENORA KS        N/A     50  32  50 MISG        N/A
NORTON KS      CLOUDY    48  37  66 NE17G26   29.46F
SHARON SPRINGS   N/A     46  42  87 N6          N/A
TRENTON NEB      N/A     45  32  60 E8          N/A
YUMA CO        RAIN      41  41 100 N10       29.58S
$$




USA.gov is the U.S. government's official web portal to all federal, state and local government web resources and services.